星链-36375(STARLINK-36375)

导读

STARLINK-36375是美国太空探索技术公司Starlink星链互联网卫星星座的一员,于2026年2月22日发射入轨。星链项目旨在为全球提供高速低延迟宽带互联网服务,该卫星入轨后将助力提升星座网络覆盖能力与服务性能,进一步推进星链星座的部署进程,拓展全球卫星互联网的服务范围。

基本信息
目录编号:
67920
目录名称:
STARLINK-36375
国际标识:
2026-036S
轨道中心:
EARTH
卫星名称:
星链-36375
卫星全名:
星链-36375(STARLINK-36375)
卫星状态:
在轨 (已飞行111 天)
发射日期:
2026-02-22 UTC
国别 :
美国 (US)
星等 :
--
轨道信息
数据来源 国际轨道数据
星历时间: 2026-06-11T19:44:43+0800
1天前
查看轨道信息
半长轴: 6861.055km
偏心率: 0.0004551
轨道倾角: 43.010°
近地点辐角 276.377°
升交点赤经 75.874°
平近点角 83.657°
近地点: 479.795km
远地点: 486.041km
周期: 94.264分钟
每日圈数: 15.276241
详细信息
固有亮度:
5
最大亮度:
2.5
卫星平台:
Starlink V1.0
覆盖范围:
全球
运营商:
太空探索技术公司
运营商所在国:
美国
制造商(研发单位):
太空探索技术公司
制造商所在国:
美国
使用方式:
暂无
卫星简介
Starlink 计划是 SpaceX 推出的全球卫星互联网项目,通过发射低轨道卫星,为全球尤其是偏远地区提供高速、低延迟的互联网服务。自 2019 年起,Starlink 已部署数千颗卫星,旨在缩小全球数字鸿沟,推动互联网普及。该项目还为军事、航空等行业提供通信支持,带来广泛经济效益。
2D轨道图
3D轨道图
轨道高度分析图
轨道倾角分析图
轨道综合分析图
查看轨道综合分析图